Tracking 30105 objects as of 24-Jan-2025
HD Live streaming from Space Station
objects crossing your sky now

STARLINK-4494

Track STARLINK-4494 now!
10-day predictions
STARLINK-4494 is classified as:


NORAD ID: 53558
Int'l Code: 2022-101AH
Perigee: 545.8 km
Apogee: 547.9 km
Inclination: 53.2 °
Period: 95.4 minutes
Semi major axis: 6917 km
RCS: Unknown
Launch date: August 19, 2022
Source: United States (US)
Launch site: AIR FORCE EASTERN TEST RANGE (AFETR)
Your satellite tracking list
Your tracking list is empty




NASA's NSSDC Master Catalog

Two Line Element Set (TLE):
1 53558U 22101AH  25024.42277094 -.00000407  00000-0 -74938-5 0  9999
2 53558  53.2192  96.1134 0001501  99.3879 260.7283 15.08843742135252
Source of the keplerian elements: AFSPC